Location: Engelmannsreuth
(49.8125°N, 11.6497°E)
Time: 15:14:24
(UTC+00:00)

Spot 2 - Pass Details

Date: 17 February 2020
Orbit: 570 x 773 km, 98.7° (Epoch: 07 April)

Event Time Altitude Azimuth Distance (km) Brightness Sun altitude
Rises 04:03:15 0° 12° (NNE) 2,790 7.7 -22.8°
Reaches altitude 10° 04:05:24 10° 9° (N) 1,890 6.7 -22.5°
Enters shadow 04:08:54 55° 325° (NW) 701 4.1 -21.9°
